Location: DARK SKY Beskydy - Park tmavé oblohy, www.darkskybeskydy.cz
(49.4926°N, 18.5016°E)
Time: 02:55:36
(UTC+02:00)

NOAA 18 - Visible Passes

Search period start: 20 June 2025 00:00
Search period end: 30 June 2025 00:00
Orbit: 836 x 858 km, 98.8° (Epoch: 19 June)

Date Brightness Start Highest point End Pass type
(mag) Time Alt. Az. Time Alt. Az. Time Alt. Az.
20 Jun 5.5 23:11:26 17° S 23:15:34 60° WSW 23:20:59 10° NNW visible
21 Jun 5.3 22:58:21 17° S 23:02:38 76° WSW 23:08:06 10° NNW visible
22 Jun 7.4 00:42:03 10° WSW 00:44:11 12° W 00:46:19 10° WNW visible
22 Jun 5.2 22:45:17 16° SSE 22:49:43 87° ENE 22:55:12 10° NNW visible
23 Jun 7.3 00:27:50 10° SW 00:31:04 16° W 00:34:18 10° NW visible
23 Jun 5.3 22:32:12 15° SSE 22:36:49 70° ENE 22:42:15 10° N visible
24 Jun 7.0 00:14:08 10° SW 00:17:59 20° W 00:21:56 10° NW visible
24 Jun 5.5 22:19:08 13° SE 22:23:57 56° ENE 22:29:16 10° N visible
25 Jun 6.8 00:01:04 12° SW 00:04:54 25° W 00:09:23 10° NW visible
25 Jun 5.8 22:06:04 11° SE 22:11:06 45° ENE 22:16:16 10° N visible
25 Jun 6.4 23:47:59 14° SSW 23:51:53 31° W 23:56:43 10° NNW visible
26 Jun 6.1 21:53:21 10° SE 21:58:17 37° ENE 22:03:14 10° N visible
26 Jun 6.1 23:34:55 16° SSW 23:38:52 40° W 23:43:58 10° NNW visible
27 Jun 6.4 21:40:50 10° ESE 21:45:29 30° ENE 21:50:09 10° N visible
27 Jun 5.8 23:21:51 17° S 23:25:53 50° W 23:31:11 10° NNW visible
28 Jun 5.5 23:08:47 17° S 23:12:55 63° WSW 23:18:20 10° NNW visible
29 Jun 5.2 22:55:44 17° S 22:59:59 79° WSW 23:05:28 10° NNW visible
